Regional Weather Roundup
Issued by NWS

Home | Current Version | Previous Version | Text Only | Print | Product List | Glossary On
Versions: 1 2 3 4 5 6 7 8 9 10 11 12 13 14 15 16 17 18 19 20 21 22 23 24 25 26 27 28 29 30 31 32 33 34 35 36 37 38 39 40 41 42 43 44 45 46 47 48 49 50
000
ASUS43 KMPX 300910
RWRMN
WEATHER ROUNDUP FOR MINNESOTA
NATIONAL WEATHER SERVICE TWIN CITIES/CHANHASSEN MN
400 AM CDT MON MAY 30 2016


NOTE: "FAIR" INDICATES FEW OR NO CLOUDS BELOW 12,000 FEET WITH NO
SIGNIFICANT WEATHER AND/OR OBSTRUCTIONS TO VISIBILITY. N/A MEANS
CURRENT SKY AND/OR WEATHER CONDITIONS ARE NOT AVAILABLE.

MNZ060>063-068>070-301000-
   Twin Cities Metro

CITY           SKY/WX    TMP DP  RH WIND       PRES   REMARKS
TWIN CITIES    CLEAR     61  57  87 S3        29.99S
ST PAUL        CLEAR     56  56 100 CALM      29.99F FOG
CRYSTAL        CLEAR     56  54  93 SE3       29.97S FOG
BLAINE           N/A     55  55 100 CALM      29.99S FOG
EDEN PRAIRIE   CLEAR     60  57  89 SW5       29.98S FOG
SOUTH ST PAUL  CLEAR     58  56  93 CALM      29.99S
LAKE ELMO      FOG       52  52 100 CALM      30.00S VSB 1/4
$$
MNZ001>005-007-008-013>017-022>024-027-028-301000-
   Northwest Minnesota

CITY           SKY/WX    TMP DP  RH WIND       PRES   REMARKS
BEMIDJI        FOG       45  45  99 CALM      29.95F VSB 1
HALLOCK        CLEAR     52  50  93 S7        29.90F
ROSEAU         CLEAR     50  45  81 CALM      29.92S
WARROAD        CLEAR     48  45  87 CALM      29.92F
THIEF RVR FALL CLEAR     54  46  76 S7        29.94S
CROOKSTON      CLEAR     50  48  93 SE7       29.93S
FOSSTON        CLEAR     50  48  93 S3        29.95S
DETROIT LAKES  RAIN      55  52  88 CALM      29.98R
MOORHEAD       CLEAR     59  48  67 S8        29.95S
PARK RAPIDS    CLEAR     52  47  83 CALM      29.96S
MAHNOMEN       FAIR      55  46  74 S6        29.95S
$$
MNZ006-009>011-018-025>026-301000-
   North Central Minnesota

CITY           SKY/WX    TMP DP  RH WIND       PRES   REMARKS
BAUDETTE       CLEAR     47  46  97 CALM      29.92S
FLAG ISLAND    CLEAR     55  52  88 NW2       29.90F
INTL FALLS     CLEAR     49  48  97 W3        29.91S
WASKISH        CLEAR     50  50 100 CALM      29.93F
BIG FORK         N/A     45  43  93 CALM      29.94F FOG
LONGVILLE      CLEAR     46  46 100 CALM      29.95F
GRAND RAPIDS   CLEAR     57  51  80 CALM      29.97S
CRANE LAKE     CLEAR     43  43 100 CALM      29.93S FOG
ORR            CLEAR     48  46  93 CALM      29.90F
COOK           CLEAR     48  48 100 CALM      29.94S
WALKER         FAIR      48  47  96 CALM      29.95F
$$
MNZ012-019>021-037-301000-
   Northeast Minnesota

CITY           SKY/WX    TMP DP  RH WIND       PRES   REMARKS
DULUTH         CLEAR     52  48  86 W9        29.95S
ELY            CLEAR     52  50  93 CALM      29.92S
HIBBING        CLEAR     41  41 100 CALM      29.95S FOG
EVELETH        CLEAR     48  46  93 W3        29.95F
DULUTH HARBOR  CLEAR     54  52  94 SW7       29.94F
TWO HARBORS    CLEAR     55  52  88 W3        29.92S
SILVER BAY     CLEAR     54  52  94 CALM      29.91S
GRAND MARAIS     N/A     49  48  97 CALM      29.88S
G MARAIS ARPRT CLEAR     50  46  87 W7        29.90S
$$
MNZ029>031-032-039>041-046>048-054>057-064-301000-
   West Central Minnesota

CITY           SKY/WX    TMP DP  RH WIND       PRES   REMARKS
FERGUS FALLS   CLEAR     59  48  67 SE5       29.93F
WHEATON        CLEAR     57  48  72 CALM      29.98R
MORRIS         CLEAR     54  46  76 S6        29.96R
ALEXANDRIA     CLEAR     54  49  83 S3        29.99S
ELBOW LAKE     FAIR      58  52  81 SE3       29.97S
WADENA         PTCLDY    48  46  93 CALM      29.96F
GLENWOOD       PTCLDY    55  52  88 S3        29.99R
APPLETON       CLOUDY    54  48  82 S3        29.97S
ORTONVILLE     CLOUDY    55  50  82 S5        29.97S
MADISON        MOCLDY    55  48  76 CALM      29.98S
WILLMAR        FAIR      55  52  88 SE3       30.00S
$$
MNZ033>034-036-042>043-049>051-058-059-301000-
   Central Minnesota

CITY           SKY/WX    TMP DP  RH WIND       PRES   REMARKS
ST CLOUD       CLEAR     51  50  96 CALM      29.98S
SAUK CENTRE    FAIR      49  48  97 CALM      29.99R
PAYNESVILLE    CLEAR     52  51  99 CALM      29.99S
AITKIN         FOG       46  43  87 CALM      29.95F VSB 1/4
PINE RIVER     CLEAR     46  46 100 CALM      29.99F
BRAINERD       CLEAR     49  48  97 S5        29.97F
STAPLES        PTCLDY    48  48 100 CALM      29.97F
LONG PRAIRIE   FAIR      52  50  93 CALM      29.99R
LITTLE FALLS   FOG       50  48  93 CALM      29.98S VSB 3/4
LITCHFIELD     CLEAR     57  55  94 CALM      30.00R
BUFFALO        CLEAR     55  53  92 CALM      30.00S
MAPLE LAKE     CLEAR     54  53  98 CALM      30.00S FOG
HUTCHINSON     CLEAR     57  56  97 CALM      30.01R
$$
MNZ037-044-045-052-053-301000-
   East Central Minnesota

CITY           SKY/WX    TMP DP  RH WIND       PRES   REMARKS
PRINCETON      CLEAR     50  48  93 CALM      29.98F FOG
MORA           FOG       50  48  93 CALM      29.99S VSB 3/4
CAMBRIDGE      CLEAR     54  46  76 CALM      29.96F
RUSH CITY      PTCLDY    50  49  97 CALM      29.98S FOG
MOOSE LAKE       N/A     45  45 100 CALM      29.95S FOG
HINCKLEY       FOG       50  50 100 CALM      29.97F VSB 1/2
CLOQUET        CLEAR     55  48  76 W7        29.95F
MCGREGOR       CLEAR     48  46  93 CALM      29.97F
$$
MNZ071>073-080-081-089-090-097-098-301000-
   Southwest Minnesota

CITY           SKY/WX    TMP DP  RH WIND       PRES   REMARKS
MONTEVIDEO     CLOUDY    55  48  76 CALM      30.00S
GRANITE FALLS  MOCLDY    57  54  87 S3        30.00S
CANBY          CLOUDY    65  52  64 SW5       29.99F
MARSHALL       CLOUDY    58  52  80 CALM      29.99F
REDWOOD FALLS  CLOUDY    56  50  80 S7        29.99S
OLIVIA         CLEAR     55  50  82 S5        29.99S
PIPESTONE      CLOUDY    59  54  82 SW14G22   30.04R
WINDOM         CLOUDY    55  52  88 CALM      30.00F
WORTHINGTON    TSTM      59  55  87 S5        30.02R
JACKSON        CLOUDY    57  50  77 CALM      30.01S
TRACY          CLOUDY    62  52  71 SW3       29.99F
SLAYTON        CLOUDY    56  53  89 SW5       30.02R
$$
MNZ065>067-074>077-082>085-091>093-301000-
   South Central Minnesota

CITY           SKY/WX    TMP DP  RH WIND       PRES   REMARKS
MANKATO        CLEAR     57  52  82 SE5       30.00F
NEW ULM        CLEAR     57  54  88 SE7       30.00S
ST JAMES       CLOUDY    52  48  87 CALM      30.01F
FAIRMONT       CLOUDY    57  52  82 CALM      30.00S
GLENCOE        CLEAR     57  57  99 CALM      29.99S
FARIBAULT      MOCLDY    55  54  94 CALM      30.01S VSB 1/2
OWATONNA       CLEAR     55  54  94 SE3       30.01F FOG
WASECA         CLEAR     54  52  94 CALM      30.03S
ALBERT LEA     CLEAR     55  54  94 CALM      30.01F
$$
MNZ078>079-086>088-094>096-301000-
   Southeast Minnesota

CITY           SKY/WX    TMP DP  RH WIND       PRES   REMARKS
ROCHESTER      CLEAR     59  54  83 W7        30.02S
RED WING       CLEAR     54  54 100 CALM      30.00R FOG
STANTON        CLEAR     54  52  93 CALM      29.99S FOG
DODGE CENTER   CLEAR     55  54  94 SW5       30.02S
WINONA         CLEAR     55  55 100 CALM      30.00S
AUSTIN         CLOUDY    55  52  88 CALM      30.01F
PRESTON        CLEAR     61  53  75 W3        30.02S
$$
ABBREVIATIONS USED IN REMARKS
   TC - TEMPERATURES IN CELSIUS
  WCI - WIND CHILL INDEX
   HX - HEAT INDEX
  VSB - VISIBILITY
$$




USA.gov is the U.S. government's official web portal to all federal, state and local government web resources and services.